[TLELIST] Archives

 

[list_settings.list_name] Current TLEs

March 28th 2016 PST

HST 1 20580U 90037B 16087.55675926 .00000955 00000-0 48851-4 0 9990 2 20580 28.4700 77.7455 0002936 54.5582 233.3263 15.08264573222775 ISS (ZARYA) 1 25544U 98067A 16088.42174823 .00004085 00000-0 68555-4 0 9994 2 25544 51.6428 100.8483 0002210 7.3507 139.8046 15.54274441992412 CXO 1 25867U 99040B 16091.10535502 .00000501 00000-0 00000+0 0 9993 2 25867 76.1190 299.7036 7162522 262.9626 359.8686 0.37804148 14373 ____________________________________________________________________ These 2-Line ...Continue Reading

[list_settings.list_name] Current TLEs

March 27th 2016 PST

HST 1 20580U 90037B 16086.19888821 .00000939 00000-0 47811-4 0 9996 2 20580 28.4699 86.7109 0002877 40.8076 59.5798 15.08262287222566 ISS (ZARYA) 1 25544U 98067A 16087.45785214 .00004158 00000-0 69668-4 0 9995 2 25544 51.6430 105.6534 0002084 2.2198 148.0056 15.54266124992269 CXO 1 25867U 99040B 16088.45976505 .00000451 00000-0 00000+0 0 9993 2 25867 76.1295 299.7733 7166994 262.9983 359.7658 0.37803800 14367 ____________________________________________________________________ These 2-Line ...Continue Reading

[list_settings.list_name] Current TLEs

March 26th 2016 PST

HST 1 20580U 90037B 16086.19888821 .00000939 00000-0 47811-4 0 9996 2 20580 28.4699 86.7109 0002877 40.8076 59.5798 15.08262287222566 ISS (ZARYA) 1 25544U 98067A 16086.42791169 .00003936 00000-0 66353-4 0 9998 2 25544 51.6420 110.7894 0001956 0.4358 143.0983 15.54255457992103 CXO 1 25867U 99040B 16088.45976505 .00000451 00000-0 00000+0 0 9993 2 25867 76.1295 299.7733 7166994 262.9983 359.7658 0.37803800 14367 ____________________________________________________________________ These 2-Line ...Continue Reading

[list_settings.list_name] Current TLEs

March 25th 2016 PST

HST 1 20580U 90037B 16084.48373522 .00001157 00000-0 61569-4 0 9992 2 20580 28.4698 98.0354 0002834 22.8656 106.2471 15.08260430222319 ISS (ZARYA) 1 25544U 98067A 16085.26185819 .00004136 00000-0 69385-4 0 9999 2 25544 51.6431 116.6034 0001969 357.7130 97.0756 15.54245984991925 CXO 1 25867U 99040B 16085.81478221 .00000374 00000-0 00000+0 0 9996 2 25867 76.1426 299.8417 7170257 263.0328 359.7565 0.37805282 14357 ____________________________________________________________________ These 2-Line ...Continue Reading

[list_settings.list_name] Current TLEs

March 24th 2016 PST

HST 1 20580U 90037B 16083.21562976 .00001165 00000-0 62056-4 0 9996 2 20580 28.4697 106.4081 0002767 9.5820 60.4223 15.08257824222116 ISS (ZARYA) 1 25544U 98067A 16084.50198400 .00004380 00000-0 73065-4 0 9996 2 25544 51.6435 120.3928 0001820 353.6188 166.6499 15.54239857991803 CXO 1 25867U 99040B 16085.81478221 .00000374 00000-0 00000+0 0 9996 2 25867 76.1426 299.8417 7170257 263.0328 359.7565 0.37805282 14357 ____________________________________________________________________ These 2-Line ...Continue Reading

[list_settings.list_name] Current TLEs

March 23rd 2016 PST

HST 1 20580U 90037B 16083.21562976 .00001165 00000-0 62056-4 0 9996 2 20580 28.4697 106.4081 0002767 9.5820 60.4223 15.08257824222116 ISS (ZARYA) 1 25544U 98067A 16083.52532256 .00005041 00000-0 83017-4 0 9991 2 25544 51.6424 125.2602 0001959 350.6796 101.3091 15.54232539991656 CXO 1 25867U 99040B 16085.81478221 .00000374 00000-0 00000+0 0 9996 2 25867 76.1426 299.8417 7170257 263.0328 359.7565 0.37805282 14357 ____________________________________________________________________ These 2-Line ...Continue Reading

[list_settings.list_name] Current TLEs

March 22nd 2016 PST

HST 1 20580U 90037B 16080.58037606 +.00001343 +00000-0 +73301-4 0 9993 2 20580 028.4695 123.8078 0002684 341.0998 151.8829 15.08252691221631 ISS (ZARYA) 1 25544U 98067A 16082.17765723 .00006106 00000-0 99060-4 0 9996 2 25544 51.6420 131.9797 0001802 345.0841 121.4414 15.54221180991446 CXO 1 25867U 99040B 16083.17047704 .00000313 00000-0 00000+0 0 9994 2 25867 76.1545 299.9184 7172523 263.0688 359.8374 0.37805016 14341 ____________________________________________________________________ These 2-Line ...Continue Reading

[list_settings.list_name] Current TLEs

March 21st 2016 PST

HST 1 20580U 90037B 16080.51029797 .00001364 00000-0 74614-4 0 9999 2 20580 28.4695 124.2704 0002675 340.3011 131.4247 15.08252631221700 ISS (ZARYA) 1 25544U 98067A 16081.13405838 .00004828 00000-0 79894-4 0 9991 2 25544 51.6444 137.1810 0002138 334.8530 48.6882 15.54206505991285 CXO 1 25867U 99040B 16083.17047704 .00000313 00000-0 00000+0 0 9994 2 25867 76.1545 299.9184 7172523 263.0688 359.8374 0.37805016 14341 ____________________________________________________________________ These 2-Line ...Continue Reading

[list_settings.list_name] Current TLEs

March 20th 2016 PST

HST 1 20580U 90037B 16079.24219932 .00001428 00000-0 78650-4 0 9994 2 20580 28.4695 132.6430 0002597 325.8151 86.8763 15.08249719221513 ISS (ZARYA) 1 25544U 98067A 16080.18316218 .00005313 00000-0 87212-4 0 9991 2 25544 51.6443 141.9231 0002129 330.7348 128.9012 15.54198314991135 CXO 1 25867U 99040B 16083.17047704 .00000313 00000-0 00000+0 0 9994 2 25867 76.1545 299.9184 7172523 263.0688 359.8374 0.37805016 14341 ____________________________________________________________________ These 2-Line ...Continue Reading

[list_settings.list_name] Current TLEs

March 19th 2016 PST

HST 1 20580U 90037B 16079.24219932 .00001428 00000-0 78650-4 0 9994 2 20580 28.4695 132.6430 0002597 325.8151 86.8763 15.08249719221513 ISS (ZARYA) 1 25544U 98067A 16079.40537306 .00007412 00000-0 11880-3 0 9996 2 25544 51.6445 145.8015 0002040 331.7490 93.2038 15.54194616991011 CXO 1 25867U 99040B 16080.52747869 +.00000312 +00000-0 +00000-0 0 9999 2 25867 076.1652 300.0016 7173212 263.1124 000.0679 00.37801749003193 ____________________________________________________________________ These 2-Line ...Continue Reading
  • This mailing list is a public mailing list - anyone may join or leave, at any time.
  • This mailing list is announce-only.

International Space Station (ISS) / Hubble Space Telescope (HST) / Chandra X-Ray Observatory Orbital Data via EMAIL

Privacy Policy:

Private list